PST,Max TemperatureF,Mean TemperatureF,Min TemperatureF,Max Dew PointF,MeanDew PointF,Min DewpointF,Max Humidity, Mean Humidity, Min Humidity, Max Sea Level PressureIn, Mean Sea Level PressureIn, Min Sea Level PressureIn, Max VisibilityMiles, Mean VisibilityMiles, Min VisibilityMiles, Max Wind SpeedMPH, Mean Wind SpeedMPH, Max Gust SpeedMPH,PrecipitationIn, CloudCover, Events, WindDirDegrees
2013-2-1,68,54,40,53,47,39,100,76,52,30.17,30.14,30.11,10,8,4,13,2,,0.00,1,,238
2013-2-2,69,59,48,54,50,47,100,75,49,30.20,30.17,30.13,10,9,6,9,2,13,0.00,2,,342
2013-2-3,71,57,43,54,49,42,93,75,56,30.13,30.07,30.00,9,7,4,17,3,20,0.00,0,,134
2013-2-4,64,54,44,52,49,43,93,80,67,30.09,30.04,29.99,10,6,3,10,3,17,0.00,1,,169
2013-2-5,58,51,44,51,49,42,93,83,72,30.10,30.03,30.00,8,5,4,12,4,24,0.00,7,,72
2013-2-6,60,50,39,49,43,38,100,84,67,30.10,30.04,30.01,9,6,2,10,2,13,0.00,1,,167
2013-2-7,63,51,39,48,42,37,96,70,43,30.15,30.07,29.99,10,8,3,13,5,,0.00,4,Tornado,290
2013-2-8,56,49,42,42,38,33,82,69,55,30.01,29.94,29.88,10,9,2,37,8,94,0.05,4,Rain,310
2013-2-9,62,50,38,40,35,28,79,53,27,30.08,30.01,29.97,10,10,9,18,7,26,0.00,0,,298
2013-2-10,58,47,35,45,40,33,89,74,59,30.09,30.05,30.02,10,9,7,12,4,14,0.00,2,,210
2013-2-11,60,48,36,46,37,31,92,65,37,30.23,30.14,30.07,10,10,8,13,3,15,0.00,0,,251
2013-2-12,61,49,36,45,38,31,83,65,47,30.35,30.27,30.23,10,10,10,12,2,,0.00,0,,232
2013-2-13,63,50,37,48,42,34,86,66,46,30.26,30.20,30.13,10,9,7,12,2,14,0.00,0,,204
2013-2-14,65,52,39,51,43,37,93,73,52,30.19,30.13,30.08,10,8,2,13,3,16,0.00,0,,241
2013-2-15,80,60,40,47,39,29,96,56,15,30.19,30.15,30.13,10,9,2,10,3,12,0.00,1,,269
2013-2-16,79,60,41,40,34,17,76,43,10,30.14,30.07,29.96,10,10,10,14,2,15,0.00,1,,229
2013-2-17,63,51,38,51,44,34,89,71,52,30.00,29.95,29.90,10,8,5,12,4,22,0.00,1,,128
2013-2-18,60,56,51,49,47,45,83,70,57,30.06,30.00,29.94,9,6,5,14,5,,0.00,8,,107
2013-2-19,60,53,45,46,41,33,86,69,51,29.96,29.86,29.76,10,9,2,20,8,30,0.00,6,Rain,282
2013-2-20,64,53,42,40,33,27,63,47,30,30.01,29.86,29.76,10,10,9,25,13,66,0.00,0,,305
2013-2-21,64,50,36,44,34,27,85,55,25,30.10,30.03,29.98,10,10,9,17,7,22,0.00,0,,9
2013-2-22,61,48,35,47,36,30,82,57,32,30.19,30.14,30.10,10,10,10,10,3,13,0.00,0,,153
2013-2-23,71,54,37,47,39,23,92,60,27,30.14,30.02,29.91,10,9,6,28,8,67,0.00,0,,307
2013-2-24,64,52,39,42,30,24,67,47,27,30.21,30.12,30.02,10,10,10,15,4,18,0.00,0,,264
2013-2-25,63,49,35,47,38,31,83,59,34,30.21,30.14,30.06,10,10,8,10,3,20,0.00,0,,140
2013-2-26,69,52,35,47,35,29,92,57,22,30.11,30.04,30.01,10,10,8,10,3,,0.00,0,,211
2013-2-27,69,53,36,49,31,23,86,53,19,30.29,30.21,30.13,10,10,8,12,3,14,0.00,0,,263
2013-2-28,71,54,37,52,40,32,89,58,27,30.33,30.29,30.25,10,9,5,8,2,,0.00,0,,190